Location: Unspecified
(0.0000°N, 0.0000°E)
Time: 01:26:46
(UTC+00:00)

Tiros 1 despin weight - Pass Details

Date: 24 November 2019
Orbit: 594 x 642 km, 48.2° (Epoch: 10 December)

Event Time Altitude Azimuth Distance (km) Brightness Sun altitude
Rises 07:00:23 0° 193° (SSW) 2,886 ? 17.2°
Reaches altitude 10° 07:03:21 10° 173° (S) 1,968 ? 17.9°
Maximum altitude 07:06:25 18° 130° (SE) 1,507 ? 18.7°
Drops below altitude 10° 07:09:27 10° 87° (E) 1,944 ? 19.4°
Sets 07:12:20 0° 68° (ENE) 2,835 ? 20.0°
